Location: Unspecified
(42.9300°N, 71.1866°W)
Time: 09:09:07
(UTC-04:00)

Genesis I - Visible Passes

Search period start: 30 July 2014 00:00
Search period end: 09 August 2014 00:00
Orbit: 505 x 561 km, 64.5° (Epoch: 29 July)

Date Brightness Start Highest point End Pass type
(mag) Time Alt. Az. Time Alt. Az. Time Alt. Az.
30 Jul 3.8 21:20:36 10° NNW 21:24:40 50° NE 21:27:17 20° ESE visible
30 Jul 5.4 22:59:37 10° WNW 23:02:22 17° WSW 23:02:38 17° WSW visible
31 Jul 3.6 21:10:27 10° NNW 21:14:34 58° NE 21:17:33 18° SE visible
31 Jul 5.6 22:49:49 10° WNW 22:52:11 15° WSW 22:52:55 14° WSW visible
01 Aug 3.5 21:00:17 10° NNW 21:04:27 67° NE 21:07:53 15° SE visible
01 Aug 5.8 22:40:09 10° W 22:41:59 13° WSW 22:43:14 11° SW visible
02 Aug 3.4 20:50:09 10° NNW 20:54:20 78° NE 20:58:15 11° SE visible
02 Aug 6.0 22:30:48 10° W 22:31:46 11° WSW 22:32:45 10° WSW visible
03 Aug 3.4 20:40:00 10° NW 20:44:12 90° ENE 20:48:21 10° SSE visible
04 Aug 3.5 20:29:52 10° NW 20:34:03 78° WSW 20:38:11 10° SSE visible
